Regional Weather Roundup
Issued by NWS

Home | Current Version | Previous Version | Graphics & Text | Print | Product List | Glossary On
Versions: 1 2 3 4 5 6 7 8 9 10 11 12 13 14 15 16 17 18 19 20 21 22 23 24 25 26 27 28 29 30 31 32 33 34 35 36 37 38 39 40 41 42 43 44 45 46 47 48 49 50
000
ASUS43 KLMK 272102
RWRKY
KENTUCKY REGIONAL WEATHER ROUNDUP
NATIONAL WEATHER SERVICE LOUISVILLE KY
500 PM EDT MON JUL 27 2015

NOTE "FAIR" INDICATES FEW OR NO CLOUDS BELOW 12,000 FEET
WITH NO SIGNIFICANT WEATHER AND/OR OBSTRUCTIONS TO VISIBILITY.

KYZ001>023-026-027-061>063-070>075-272200-
WESTERN AND SOUTH CENTRAL KENTUCKY

CITY           SKY/WX    TMP DP  RH WIND       PRES   REMARKS
PADUCAH        MOSUNNY   92  78  63 S5        29.91F HX 107
HENDERSON      MOSUNNY   88  77  70 NE5       29.91F HX 100
OWENSBORO      PTSUNNY   91  77  63 VRB3      29.94F HX 104
HOPKINSVILLE   MOSUNNY   92  76  60 SW8       29.94F HX 104
BOWLING GREEN  PTSUNNY   86  77  74 NE7       29.96S HX  97
GLASGOW        NOT AVBL
$$

KYZ024-025-028>034-038-045-046-053-272200-
NORTH CENTRAL KENTUCKY

CITY           SKY/WX    TMP DP  RH WIND       PRES   REMARKS
LOUISVILLE/SDF PTSUNNY   91  73  55 W10       29.94F HX  99
LOUISVILLE/LOU PTSUNNY   89  73  59 SW8       29.95F HX  97
FORT KNOX      PTSUNNY   87  74  65 SW5       29.94F HX  96
$$

KYZ035>037-039>044-047>052-055>060-089>105-272200-
NORTHEAST KENTUCKY

CITY           SKY/WX    TMP DP  RH WIND       PRES   REMARKS
LEXINGTON      MOSUNNY   87  73  62 SW8       29.97F HX  94
COVINGTON      PTSUNNY   88  72  58 NW6       29.96F HX  94
FRANKFORT      MOSUNNY   86  72  62 W7        29.95F HX  92
$$

KYZ054-064>069-076>088-106>120-272200-
SOUTHEAST KENTUCKY

CITY           SKY/WX    TMP DP  RH WIND       PRES   REMARKS
JACKSON        LGT RAIN  79  74  84 CALM      30.00S
LONDON         PTSUNNY   87  70  56 NW6       29.99F HX  92
SOMERSET       NOT AVBL
MIDDLESBORO    PTSUNNY   90  73  58 W3        29.99S HX  97
MONTICELLO     MOCLDY    88  77  69 CALM      30.01S HX 100
$$



USA.gov is the U.S. government's official web portal to all federal, state and local government web resources and services.